Location: ???? ?????????
(41.2701°N, 22.8569°E)
Time: 10:07:39
(UTC+00:00)

Daily predictions for brighter satellites

Satellite Brightness Start Highest point End
(mag) Time Altitude Azimuth Time Altitude Azimuth Time Altitude Azimuth
CZ-4 R/B 3.6 18:12:30 10° SSW 18:15:51 26° W 18:19:17 10° NW
Cosmos 1743 Rocket 3.6 18:11:24 10° N 18:15:54 84° E 18:20:21 10° S
SL-4 R/B 4.4 18:12:27 10° NW 18:16:06 22° N 18:19:36 10° NE
Cosmos 1544 4.3 18:13:14 10° NNE 18:16:11 24° ENE 18:19:06 10° SE
IGS 5A 3.6 18:13:03 10° SSE 18:17:07 59° ENE 18:21:13 10° N
Resurs 01 Rocket 2.7 18:13:59 10° SE 18:17:45 28° ENE 18:21:31 10° N
CSL-04 Rocket 3.8 18:13:40 10° S 18:18:57 80° WSW 18:24:19 10° NNW
Cosmos 1656 4.2 18:14:09 10° S 18:19:11 36° ESE 18:24:12 10° NE
Exosat Rocket 4.0 18:15:03 10° SSW 18:20:00 67° WNW 18:25:25 10° NNE
Cosmos 2061 Rocket 4.0 18:14:56 10° S 18:21:07 76° E 18:27:18 10° N
Cosmos 1805 Rocket 3.6 18:17:04 10° N 18:21:32 66° E 18:25:56 10° SSE
PSLV R/B 4.4 18:18:47 10° NNE 18:22:37 39° E 18:26:24 10° S
Genesis I 3.3 18:23:34 10° SSW 18:27:28 59° ESE 18:31:29 10° NE
COBE Rocket 4.0 18:23:05 10° SSE 18:28:13 75° ENE 18:33:16 10° N
Okean-O 3.4 18:24:43 10° S 18:29:02 53° W 18:33:23 10° NNW
Cosmos 1666 2.7 18:28:46 10° N 18:32:35 90° NNE 18:36:23 10° S
Cosmos 1633 Rocket 4.1 18:29:02 10° NNE 18:32:51 28° ENE 18:36:22 11° SE
Cosmos 1151 Rocket 3.3 18:30:07 10° SSE 18:34:12 45° E 18:38:18 10° NNE
Landsat 7 3.8 18:30:25 10° SSE 18:35:05 70° ENE 18:39:47 10° N
BREEZE-M DEB (TANK) 4.1 18:30:26 10° SW 18:35:22 64° SE 18:48:47 10° NE
Cosmos 1500 4.4 18:32:25 10° NNW 18:36:04 43° W 18:39:40 10° SSW
Meteor 1-5 Rocket 4.1 18:32:35 10° N 18:38:01 70° E 18:43:18 10° SSE
COSMOS 2487 2.4 18:36:29 10° NNW 18:39:36 67° WSW 18:42:41 10° S
Cosmos 44 3.6 18:35:33 10° NNW 18:39:43 45° NE 18:43:19 13° SE
Cosmos 1697 Rocket 3.7 18:37:20 10° SSE 18:41:54 26° ESE 18:46:29 10° NE
Cosmos 1814 Rocket 4.1 18:40:42 10° NNW 18:45:48 63° ENE 18:50:22 13° SSE
OBJECT-B 3.6 18:45:02 10° SW 18:46:38 14° W 18:48:15 10° WNW
BREEZE-M DEB (TANK) 3.4 18:43:10 10° WNW 18:46:38 57° SW 18:50:38 14° SE
Cosmos 1315 Rocket 3.4 18:43:41 10° N 18:47:35 42° ENE 18:50:39 15° SE
Cosmos 2297 Rocket 2.8 18:42:17 10° NNW 18:47:41 44° ENE 18:52:09 15° SE
Sich 1 3.2 18:46:20 10° NNW 18:50:44 73° W 18:55:02 10° S
IRS-1A Rocket 4.3 18:46:37 10° SSE 18:52:10 70° ENE 18:57:52 10° N
USA 276 4.2 18:51:14 10° W 18:53:11 16° SW 18:55:07 10° S
ATLAS 2AS CENTAUR R/B 4.3 18:52:51 14° SE 18:55:37 17° ESE 19:00:06 10° ENE
NOSS 3-4 (A) 3.5 18:54:17 10° S 18:59:39 47° ESE 19:05:21 10° NE
NOSS 3-4 (C) 3.5 18:54:21 10° S 18:59:45 46° ESE 19:05:27 10° NE
SPOT 1/Viking Rocket 3.6 18:55:14 13° SSE 18:59:50 67° ENE 19:04:59 10° N
Cosmos 841 Rocket 4.3 18:57:06 10° NNW 19:02:03 49° WSW 19:06:59 10° S
Cosmos 397 4.5 19:03:15 10° NNW 19:07:20 87° ENE 19:10:28 20° SSE
CARTOSAT-1 4.1 19:04:58 20° SE 19:07:36 43° ENE 19:11:41 10° N
Tsikada Rocket 4.4 19:01:37 10° NNW 19:07:51 64° W 19:14:00 10° S
NOSS 3-2 (A) 4.3 19:01:31 10° NW 19:09:14 74° WSW 19:16:40 15° SSE
Aureole 1 Rocket 3.5 19:10:45 24° ESE 19:10:59 24° ESE 19:13:38 10° NE
MOS 1 4.5 19:07:26 10° S 19:13:03 71° WSW 19:18:44 10° NNW
IRAS Rocket 4.4 19:08:11 10° NNE 19:13:48 81° WNW 19:19:26 10° SSW
Meteor 2-6 Rocket 4.4 19:09:54 10° SSW 19:15:14 69° W 19:20:41 10° N
Cosmos 2344 3.8 19:08:38 10° S 19:15:54 44° ESE 19:22:50 10° NE
Meteor 2-19 Rocket 4.5 19:10:45 10° N 19:16:55 71° E 19:21:35 18° SSE
Cosmos 2219 3.7 19:13:16 10° NNW 19:18:42 47° ENE 19:21:59 23° SE
MetOp-B 4.1 19:14:57 18° SSE 19:18:54 76° ENE 19:24:16 10° N
Cosmos 2208 Rocket 4.1 19:14:57 10° NNW 19:20:26 77° ENE 19:23:54 23° SSE
NOSS 3-2 (C) 4.1 19:17:03 10° NW 19:24:47 87° NE 19:30:57 22° SE
SPOT 5 3.7 19:23:57 24° SE 19:26:44 43° ENE 19:31:40 10° N
ASTRO E2 4.5 19:25:45 10° SW 19:27:27 16° SSW 19:27:27 16° SSW
H-2A R/B 4.2 19:25:27 10° N 19:28:52 26° WNW 19:32:18 10° SW
Gbstr 26 Del rocket 4.1 19:23:04 10° WNW 19:30:19 72° SW 19:33:54 26° SE
CZ-4B R/B 3.5 19:28:51 10° NNW 19:31:36 26° WNW 19:34:19 10° SW
Cosmos 1536 2.9 19:29:39 10° N 19:33:38 59° E 19:35:03 36° SE
OAO 3 Rocket 3.8 19:29:29 10° WSW 19:34:02 38° S 19:35:25 31° SE
Helios 1A Rocket 3.0 19:32:49 34° SE 19:34:17 56° ENE 19:38:14 10° N
Cosmos 968 Rocket 4.1 19:29:46 10° SSW 19:34:50 57° WNW 19:39:55 10° NNE
Cosmos 1328 Rocket 4.1 19:31:11 10° SSW 19:35:24 56° W 19:39:40 10° N
Cosmos 389 Rocket 3.0 19:32:38 10° N 19:35:57 39° ENE 19:36:27 37° E
ERS-1 Rocket 3.5 19:33:56 28° SE 19:36:08 44° ENE 19:40:55 10° N
Cosmos 1184 Rocket 3.1 19:37:13 42° E 19:37:13 42° E 19:39:54 10° NNE
Okean 1 4.2 19:39:16 30° E 19:39:31 31° E 19:43:04 10° NNE
Cosmos 1515 3.5 19:38:42 30° S 19:40:31 88° E 19:44:18 10° N
Cosmos 405 3.1 19:41:17 10° NNW 19:44:40 64° W 19:45:41 40° SSW
Cosmos 2263 Rocket 3.8 19:40:40 10° N 19:44:53 21° NE 19:47:37 15° E
USA 238 DEB 4.0 19:37:47 10° NW 19:45:09 74° WSW 19:49:49 26° SSE
USA 238 4.0 19:37:54 10° NW 19:45:15 75° WSW 19:49:55 26° SSE
BREEZE-M DEB (TANK) 3.9 19:45:31 10° NW 19:47:19 19° NNE 19:49:50 10° ENE
CENTAUR R/B 3.8 19:40:58 10° NW 19:49:05 51° WSW 19:55:27 19° S
Cosmos 1743 2.5 19:45:59 10° N 19:49:46 80° E 19:50:38 51° SSE
Ariane Rocket 3.9 19:46:51 16° SSW 19:50:37 43° W 19:55:27 10° NNW
ISS -0.8 19:49:22 10° NNW 19:51:15 14° N 19:53:07 10° NE
Terra 2.2 19:51:03 36° ESE 19:52:31 48° ENE 19:57:06 10° N
SPOT 3 Rocket 3.7 19:49:48 26° S 19:52:41 68° WSW 19:57:49 10° NNW
Cosmos 2227 Rocket 2.2 19:48:24 10° NNW 19:54:06 82° WSW 19:56:42 34° SSE
Resurs 01 Rocket 3.5 19:50:35 10° SSW 19:54:11 26° W 19:57:53 10° NW
Cosmos 1933 Rocket 3.5 19:51:14 10° N 19:55:43 80° E 19:57:05 44° SSE
SL-4 R/B 3.2 19:52:19 10° NW 19:56:36 40° NNE 19:58:33 25° ENE
Cosmos 1975 4.4 19:58:21 10° NNE 20:01:32 22° ENE 20:01:32 22° ENE
Cosmos 2369 3.6 19:58:19 25° S 20:01:37 70° ESE 20:07:15 10° NNE
EXPRESS MD2 3.6 19:58:36 10° NW 20:03:24 50° NNE 20:04:03 42° ENE
Cosmos 1980 Rocket 2.1 20:01:44 32° S 20:04:14 63° ESE 20:09:50 10° NNE
Cosmos 1340 3.2 20:03:28 32° SW 20:04:55 55° WNW 20:08:36 10° N
BREEZE M DEB (TANK) 4.2 20:02:48 10° NW 20:07:08 68° NNE 20:24:44 10° ESE
Cosmos 1464 Rocket 4.3 20:04:26 16° SSW 20:09:29 66° W 20:15:39 10° N
Cosmos 2322 Rocket 4.3 20:11:25 10° E 20:11:25 10° E 20:11:44 10° ENE
Cosmos 1354 Rocket 3.9 20:10:53 42° S 20:12:38 69° ESE 20:17:54 10° NNE
Meteor 1-18 Rocket 4.5 20:13:45 43° SE 20:15:06 52° E 20:20:35 10° NNE
CZ-2C R/B 3.9 20:11:24 10° N 20:16:09 76° WNW 20:18:11 35° SSW
Cosmos 2228 Rocket 3.1 20:18:18 61° SE 20:18:51 68° E 20:23:24 10° NNE
SJ 16-02 1.3 20:19:14 62° ESE 20:19:16 62° ESE 20:23:35 10° NNE
Cosmos 1777 Rocket 4.1 20:21:24 49° ESE 20:21:48 51° ESE 20:26:52 10° NNE
USA 81 4.4 20:23:16 44° ESE 20:23:52 46° E 20:28:54 10° NNE
USA 215 3.1 20:17:25 10° NE 20:23:58 67° SE 20:30:29 10° SW
Spot 2 Rocket 4.0 20:22:55 36° SSW 20:24:40 53° W 20:29:37 10° NNW
Cosmos 1697 Rocket 3.7 20:20:09 10° SW 20:25:33 45° WNW 20:31:00 10° NNE
Cosmos 1092 Rocket 4.0 20:22:53 10° N 20:29:04 69° E 20:30:47 48° SE
Timation 2 Rocket 4.1 20:24:45 10° NNW 20:31:20 78° ENE 20:33:34 45° SE
Cosmos 2297 Rocket 3.8 20:26:51 10° NW 20:31:26 26° WSW 20:33:58 19° SW
Cosmos 1634 Rocket 4.0 20:29:57 47° SSE 20:31:33 62° E 20:37:39 10° NNE
SAR-Lupe-4 4.1 20:29:58 10° NNE 20:32:50 54° NNE 20:32:50 54° NNE
Nadezhda 4 Rocket 4.3 20:29:20 10° NNW 20:35:28 61° W 20:38:01 35° SSW
Cosmos 773 Rocket 3.9 20:30:50 10° NNW 20:36:03 69° ENE 20:36:50 59° ESE
ARIANE 5 R/B 2.6 20:36:21 65° SW 20:36:47 72° WSW 20:41:18 10° NNW
Meteor 2-9 Rocket 4.3 20:32:07 10° NNW 20:37:55 76° W 20:39:27 50° S
CSL-04 DEB 4.5 20:38:52 10° N 20:42:48 68° WNW 20:42:51 68° W
Cosmos 1869 Rocket 3.7 20:40:17 10° NNW 20:44:44 64° W 20:45:03 61° WSW
SL-16 R/B 3.1 20:45:49 33° E 20:45:49 33° E 20:50:12 10° NE
ATLAS 2AS CENTAUR R/B 2.9 20:40:06 22° SSW 20:45:35 82° ESE 20:53:13 10° NE
Cosmos 44 Rocket 4.3 20:52:01 10° NNW 20:56:18 33° NE 20:56:56 32° ENE
USA 267 4.2 20:53:18 17° E 20:58:00 42° NNE 21:04:04 10° NW
Cosmos 1378 4.1 20:59:52 44° NW 20:59:52 44° NW 21:02:48 10° N
Cosmos 1346 Rocket 3.4 21:00:20 52° NNE 21:00:20 52° NNE 21:03:26 10° NNE
RESURS DK-1 2.8 21:00:59 61° N 21:00:59 61° N 21:04:32 10° NNE
Cosmos 2026 Rocket 3.9 20:55:02 10° N 21:01:11 79° W 21:02:32 56° SSW
Cosmos 2278 3.8 21:00:40 45° SW 21:02:24 72° WNW 21:08:05 10° NNE
Cosmos 921 Rocket 4.0 20:59:14 10° NNW 21:03:25 38° W 21:03:26 38° W
Cosmos 1707 Rocket 3.8 21:08:54 64° WNW 21:08:54 64° WNW 21:13:09 10° N
Cosmos 2082 4.4 21:07:58 10° NW 21:13:09 39° WSW 21:13:46 38° WSW
SL-24 R/B - RUBIN 2 4.5 21:10:14 10° NNW 21:14:22 41° NE 21:14:22 41° NE
H-2A ROCKET BODY 4.3 20:39:25 10° W 21:15:30 42° SSW 21:18:09 38° S
Cosmos 2360 Rocket 3.5 21:18:39 26° E 21:18:39 26° E 21:22:13 10° NE
Meteor 2-15 Rocket 4.3 21:21:16 67° SSW 21:22:09 85° W 21:28:15 10° N
Cosmos 158 Rocket 3.9 21:19:26 10° NNW 21:24:25 76° W 21:24:25 76° W
ATLAS 3B R/B 3.4 21:18:56 10° NNW 21:26:10 54° NE 21:29:10 35° ESE
ISS -1.3 21:26:01 10° NW 21:28:02 23° N 21:28:02 23° N
Cosmos 2263 Rocket 2.3 21:23:44 10° NNW 21:29:14 60° WSW 21:29:17 60° WSW
Terra 3.8 21:29:55 17° WSW 21:30:30 18° W 21:33:41 10° NW
Cosmos 1066 Rocket 4.1 21:30:36 79° SE 21:30:51 81° E 21:36:37 10° NNE
Spot 4 4.0 21:32:31 70° NNE 21:32:31 70° NNE 21:36:55 10° N
Cosmos 2266 Rocket 4.1 21:29:14 10° N 21:35:26 58° E 21:36:03 56° ESE
SL-4 R/B 3.9 21:32:04 10° WNW 21:34:00 23° WNW 21:34:00 23° WNW
ALOS 2 3.4 21:37:55 44° NE 21:37:55 44° NE 21:41:25 10° N
Cosmos 2279 Rocket 4.2 21:39:47 51° WSW 21:40:58 60° W 21:47:06 10° N
Cosmos 2333 Rocket 3.7 21:44:57 24° E 21:44:57 24° E 21:48:24 10° NE
Cosmos 1733 Rocket 4.2 21:40:14 10° NNW 21:43:44 39° WNW 21:43:44 39° WNW
Cosmos 1980 Rocket 4.4 21:44:31 10° W 21:48:43 21° NW 21:52:57 10° N
Cosmos 1908 Rocket 4.3 21:46:42 10° N 21:49:57 49° N 21:49:57 49° N
Cosmos 2322 Rocket 2.1 21:53:11 87° N 21:53:11 87° N 21:58:45 10° NNE
Cosmos 1898 Rocket 3.8 21:55:07 57° ENE 21:55:07 57° ENE 21:59:41 10° NNE
Meteor 2-10 4.0 21:51:23 10° N 21:56:21 77° N 21:56:21 77° N
Cosmos 990 Rocket 4.0 21:57:50 76° NNW 21:57:50 76° NNW 22:02:47 10° NNE
SJ 16-02 4.0 21:56:10 10° W 21:58:15 13° WNW 22:00:21 10° NNW
ERS-2 4.0 21:56:28 10° N 21:58:20 29° N 21:58:20 29° N
Gblst 52 Del rocket 4.4 22:02:08 61° E 22:02:08 61° E 22:06:59 10° ENE
Meteor 1-15 Rocket 4.2 21:57:55 10° N 22:03:32 76° ENE 22:03:32 76° ENE
USA 215 4.3 22:00:39 10° NE 22:06:45 43° NNW 22:12:50 10° W
Meteor 1-12 Rocket 4.2 22:03:08 10° NNW 22:09:06 77° W 22:09:11 77° WSW
Cosmos 1844 Rocket 2.8 22:05:40 10° NNW 22:11:13 62° ENE 22:11:24 62° ENE
Nimbus 7 Rocket 4.5 22:12:14 10° NNE 22:17:58 61° E 22:17:58 61° E
Cosmos 1844 4.0 22:12:49 10° NNW 22:18:35 61° ENE 22:19:02 59° E
Cosmos 2237 4.5 22:19:27 57° W 22:19:57 60° WNW 22:25:37 10° NNE
Cosmos 1726 4.1 22:17:50 10° NNW 22:19:37 27° NNW 22:19:37 27° NNW
Cosmos 1655 Rocket 4.1 22:17:05 10° NNW 22:23:13 61° W 22:23:33 60° WSW
Cosmos 2219 Rocket 2.9 22:25:00 40° E 22:25:00 40° E 22:29:30 10° NE
SL-16 R/B 3.4 22:27:38 30° W 22:29:10 35° WNW 22:34:20 10° N
Iridium 4 Rocket 4.4 22:27:19 10° NNW 22:30:35 34° WNW 22:30:35 34° WNW
Cosmos 1707 4.4 22:37:18 31° NNE 22:37:18 31° NNE 22:39:30 10° NNE
COSMOS 2428 3.6 22:37:38 38° E 22:37:38 38° E 22:42:19 10° NE
ATLAS CENTAUR R/B 3.0 22:34:00 10° NNW 22:38:27 34° NE 22:39:13 32° ENE
ADEOS Rocket 2.9 22:40:53 64° W 22:40:53 64° W 22:46:20 10° NNW
USA 267 3.1 22:40:37 67° SW 22:40:47 67° SW 22:47:19 10° NW
Cosmos 1470 4.4 22:37:22 10° N 22:39:37 33° N 22:39:37 33° N
Cosmos 2237 Rocket 4.2 22:46:26 16° E 22:46:29 16° E 22:49:47 10° ENE
PSLV R/B 4.3 22:45:54 10° N 22:49:15 51° N 22:49:15 51° N
Meteor 1-22 Rocket 4.4 22:44:53 10° NNW 22:50:43 65° W 22:50:43 65° W
Cosmos 2333 4.1 22:53:43 77° WNW 22:53:43 77° WNW 22:59:22 10° NNE
Cosmos 372 Rocket 4.1 22:57:29 66° NW 22:57:29 66° NW 23:02:17 10° NNE
Cosmos 2360 Rocket 3.0 23:00:22 38° W 23:01:14 40° WNW 23:06:33 10° N
Thor Agena Rocket 4.5 22:56:56 10° NNE 23:01:48 38° E 23:01:48 38° E
Okean 2 4.5 23:04:11 43° N 23:04:11 43° N 23:06:59 10° N
CZ-2D R/B 3.8 23:01:27 10° NE 23:05:28 21° E 23:06:07 21° ESE
Cosmos 1242 Rocket 4.5 23:02:45 10° N 23:04:40 29° N 23:04:40 29° N
Cosmos 1818 3.5 23:04:00 10° NNW 23:09:12 81° NW 23:09:12 81° NW
SL-16 R/B 4.3 23:09:58 11° ESE 23:14:41 26° ENE 23:19:41 10° N
ASTEX 1 3.8 23:10:33 10° N 23:14:54 53° WNW 23:14:54 53° WNW
ATLAS 3B R/B 3.6 23:10:03 10° NW 23:16:23 36° WSW 23:16:23 36° WSW
In-Cosmos 22 4.2 23:17:33 66° W 23:17:43 66° WNW 23:23:15 10° N
Cosmos 2278 Rocket 3.7 23:12:41 10° N 23:17:43 31° ENE 23:21:39 15° ESE
NOSS 3-1 (C) 4.2 23:10:29 10° NNW 23:18:08 79° NE 23:23:32 27° SE
Cosmos 1378 Rocket 4.1 23:19:57 57° NE 23:19:57 57° NE 23:23:35 10° NNE
Cosmos 2151 Rocket 4.1 23:15:43 10° N 23:19:15 57° N 23:19:15 57° N
Okean 2 Rocket 3.7 23:20:55 10° NNW 23:24:32 54° NW 23:24:32 54° NW
NOSS 0 Rocket 4.2 23:26:29 50° SE 23:27:14 52° ESE 23:33:16 10° NE
Cosmos 2333 Rocket 2.8 23:26:56 41° W 23:27:46 44° WNW 23:33:11 10° NNE
SL-08 R/B 4.4 23:21:39 10° NNW 23:27:53 71° W 23:28:34 65° SW
GP-B 3.8 23:28:31 10° NNE 23:32:40 46° E 23:32:40 46° E
Cosmos 2322 4.0 23:32:07 52° W 23:32:49 55° WNW 23:38:27 10° NNE
Cosmos 1417 Rocket 4.4 23:35:31 62° SW 23:36:24 72° W 23:42:37 10° N
Cosmos 1980 4.2 23:36:28 45° SE 23:37:01 46° ESE 23:42:23 10° NE
Cosmos 2322 Rocket 4.5 23:34:57 10° W 23:37:57 15° NW 23:41:09 10° NNW
Meteor 2-12 Rocket 4.5 23:39:12 10° N 23:45:18 74° E 23:46:53 51° SSE
Cosmos 2315 Rocket 4.2 23:44:10 47° SSE 23:45:51 64° E 23:52:09 10° NNE
USA 305 4.2 23:49:16 31° E 23:49:16 31° E 23:51:56 10° ENE
Resurs 1-4 Rocket 2.5 23:43:31 10° NNE 23:48:40 53° E 23:49:28 48° SE
NPP 4.3 23:47:14 10° NNE 23:52:26 46° E 23:53:35 40° SE
Cosmos 1461 3.1 23:48:58 10° NNW 23:52:52 68° NNE 23:52:52 68° NNE
Cosmos 1025 Rocket 4.3 23:54:33 31° ESE 23:55:06 32° E 23:58:57 10° NNE
